Regional Weather Roundup
Issued by NWS Portland, ME

Home | Current Version | Previous Version | Text Only | Print | Product List | Glossary On
Versions: 1 2 3 4 5 6 7 8 9 10 11 12 13 14 15 16 17 18 19 20 21 22 23 24 25 26 27 28 29 30 31 32 33 34 35 36 37 38 39 40 41 42 43 44 45 46 47 48 49 50
000
ASUS41 KGYX 281510
RWRGYX
WEATHER ROUNDUP FOR MAINE AND NEW HAMPSHIRE
NATIONAL WEATHER SERVICE GRAY ME
1100 AM EDT FRI AUG 28 2015

MEZ002-005-006-010-012-015-018-020-021-024-026-027-029-281600-
MAINE

CITY           SKY/WX    TMP DP  RH WIND       PRES   REMARKS
PORTLAND       SUNNY     73  57  57 VRB3      30.14S
SANFORD        MOSUNNY   75  54  46 SW8       30.15S
BAR HARBOR     PTSUNNY   70  57  64 N9        30.10S
WISCASSET      MOSUNNY   72  56  57 VRB3      30.14S
ROCKLAND       MOSUNNY   70  57  64 W7        30.10S
FRYEBURG       SUNNY     73  59  61 VRB3      30.15S
LEWISTONAUBURN MOSUNNY   72 N/A N/A W8        30.14S
AUGUSTA        MOSUNNY   69  53  56 W8        30.13S
WATERVILLE     SUNNY     70  54  56 N5        30.10S
BANGOR         MOSUNNY   70  54  56 NW9       30.11S
GREENVILLE       N/A     64  53  67 NW8       30.11R
MILLINOCKET    SUNNY     68  54  60 NW6       30.11S
HOULTON        MOSUNNY   68  53  58 NW9       30.07R
PRESQUE ISLE   PTSUNNY   64  48  55 W8        30.07S
FRENCHVILLE    PTSUNNY   63  52  67 W9        30.06S
CARIBOU        PTSUNNY   66  52  60 VRB6      30.06S
$$

NHZ002-005-008-009-011-012-014-281600-
NEW HAMPSHIRE

CITY           SKY/WX    TMP DP  RH WIND       PRES   REMARKS
PORTSMOUTH     MOSUNNY   73  57  57 VRB3      30.14R
ROCHESTER      SUNNY     73  55  53 VRB5      30.15R
NASHUA         SUNNY     73  55  53 NW9       30.16S
MANCHESTER     MOSUNNY   74  51  44 N14       30.14S
CONCORD        SUNNY     73  55  53 NW10      30.16S
LACONIA        SUNNY     72  52  49 N12       30.15S
PLYMOUTH       FAIR      70  53  54 W7        30.16S
BERLIN         CLOUDY    68  54  60 VRB5      30.18R
WHITEFIELD     MOSUNNY   68  53  58 W8        30.19S
JAFFREY        MOSUNNY   70  54  56 VRB3      30.18S
KEENE          SUNNY     68  54  60 NW6       30.18F
LEBANON        SUNNY     68  55  63 CALM      30.18F
MT WASHINGTON  PTSUNNY   45  36  70 N2          N/A  VSB 1/4
$$

VTZ005-007-008-281600-
VERMONT

CITY           SKY/WX    TMP DP  RH WIND       PRES   REMARKS
ST JOHNSBURY     N/A     67  53  61 MISG      30.17S
MONTPELIER     MOSUNNY   66  53  63 NW6       30.23S
BURLINGTON     PTSUNNY   70  53  54 VRB5      30.19R
$$

MAZ007-012-024-CTZ003-RIZ002-NYZ038-NYZ072-281600-
SOUTHERN NEW ENGLAND AND NY

CITY           SKY/WX    TMP DP  RH WIND       PRES   REMARKS
BOSTON         MOSUNNY   71  56  58 SE5       30.16R
WORCESTER      SUNNY     70  51  51 CALM      30.19R
NANTUCKET      SUNNY     76  57  51 VRB5      30.15R
PROVIDENCE     MOSUNNY   75  55  49 CALM      30.16S
HARTFORD       MOSUNNY   74  55  51 NE8       30.17S
ALBANY         MOSUNNY   70  55  59 VRB5      30.21R
NEW YORK CITY  MOSUNNY   74  53  48 NW5       30.18S
$$

ANZ081-ANZ082-ANZ150-NHZ014-MEZ023>029-281600-
COASTAL MARINE OBSERVATIONS

STATION/POSITION TIME  TEMP    WIND        PRES    WAVE
                       AIR SEA DIR/SP/G            HT/PER
                 (UTC) (F)     (DEG/KT/KT) (MB)    (FT/S)
MOUNT DESERT ROC 1500   59     250/  7/  7 1019.7S
MATINICUS ROCK   1500   61     290/  4/  5 1020.0R
ISLE OF SHOALS   1500   66      CALM  /  1 1020.6R
JEFFREYS LEDGE   1403      68                N/A     3/10
CASHES LEDGE BUO 1450   67                 1020.0R
GEORGES BANK BUO 1450   70 71  300/  2/  4 1019.1R   6/11
$$

.............KEY..............
   WCI - WIND CHILL
   TC  - TEMPERATURE IN CELSIUS
   VSB - VISIBILITY IN MILES
   HX  - HEAT INDEX
   FAIR- INDICATES FEW OR NO CLOUDS BELOW 12,000 FT, WITH NO
         SIGNIFICANT WEATHER AND/OR OBSTRUCTIONS TO VISIBILITY.




USA.gov is the U.S. government's official web portal to all federal, state and local government web resources and services.